Zurück zum Katalog

STARLINK-2473

AktivKommunikationVLEO
NORAD 48131·PAYLOAD·🇺🇸 United States

Gestartet Apr 7, 2021 von Cape Canaveral Space Force Station

Loading…

Nächste Überflüge (nächste 24 Stunden)

TLE

AktuellSource: CelesTrak SupGP

Epoche: Sep 14, 2026, 19:55 UTC

1 48131C 21027AR  26257.83034722 -.00004895  00000+0 -15749-3 0  2573
2 48131  53.1601 352.6338 0001196  80.2292 118.5060 15.31687261    17

Verfolge STARLINK-2473 in Echtzeit mit AllMySat

Download on the App Store